Home   Weather   Red Deer   Past weeks

Flag for Canada Past Weather in Red Deer, Alberta, Canada — Yesterday and Last 2 Weeks

Now
34 °F

Fog.


Feels Like: 31 °F
Forecast: 33 / 42 °F
Wind: 3 mph from East

Location: Red Deer

Current Time: Apr 23, 2017 at 1:47:23 pm

Latest Report: Apr 23, 2017 at 1:00 pm


Visibility: 1 mi

Pressure: 29.88 "Hg (26.86 "Hg at 857m altitude)

Humidity: 100%

Dew Point: 34 °F

Location of Red DeerLocation

Past Weather in Red Deer — Graph

°F

Red Deer Temperature Yesterday

Maximum temperature yesterday: 43 °F (at 2:00 pm)
Minimum temperature yesterday: 32 °F (at 5:00 am)
Average temperature yesterday: 36 °F

High & Low Weather Summary for the Past Weeks

 TemperatureHumidityPressure
High59 °F (Apr 20, 4:00 pm)100% (Apr 9, 4:00 am)30.44 "Hg (Apr 9, 4:00 am)
Low12 °F (Apr 16, 7:00 am)25% (Apr 20, 4:00 pm)29.65 "Hg (Apr 8, 12:00 pm)
Average36 °F80%30.04 "Hg
* Reported Apr 8 12:00 pm — Apr 23 12:00 pm, Red Deer, Weather by CustomWeather, © 2017

Note: Actual official high and low records may vary slightly from our data, if they occured in-between our weather recording intervals... More about our weather records

Advertising

Red Deer Weather History for the Previous 24 Hours

Scroll right to see more
 ConditionsComfort  
Time TempWeatherWind HumidityBarometerVisibility
12:00 pm
Sun, Apr 23
34 °FFog.5 mph100%29.90 "Hg1 mi
11:00 am34 °FFog.5 mph93%29.90 "Hg1 mi
10:00 am34 °FFog.5 mph93%29.91 "Hg2 mi
9:00 am32 °FIce fog.5 mph93%29.93 "Hg3 mi
8:00 am32 °FIce fog.8 mph93%29.95 "Hg3 mi
7:00 am32 °FIce fog.8 mph100%29.95 "Hg2 mi
6:00 am32 °FDrizzle. Ice fog.8 mph100%29.97 "Hg3 mi
5:08 am32 °FDrizzle. Low clouds.6 mph100%29.99 "Hg8 mi
4:26 am32 °FLight snow. Low clouds.3 mph100%30.00 "Hg2 mi
4:00 am32 °FLight snow. Dense fog.6 mph100%30.01 "Hg1 mi
3:16 am32 °FLight snow. Dense fog.3 mph93%30.03 "Hg1 mi
3:00 am32 °FLight snow. Overcast.8 mph93%30.03 "Hg3 mi
2:00 am32 °FLight snow. Overcast.10 mph93%30.05 "Hg7 mi
1:00 am32 °FLight snow. Overcast.13 mph93%30.08 "Hg5 mi
12:00 am34 °FLight snow. Overcast.13 mph87%30.10 "Hg8 mi
11:32 pm
Sat, Apr 22
34 °FLight snow. Overcast.9 mph87%30.13 "Hg15 mi
11:00 pm32 °FLight snow. Low clouds.9 mph93%30.13 "Hg10 mi
10:00 pm32 °FLight snow. Low clouds.10 mph93%30.16 "Hg8 mi
9:00 pm34 °FLight snow. Low clouds.14 mph87%30.16 "Hg5 mi
8:00 pm34 °FLight snow. Low clouds.18 mph87%30.17 "Hg8 mi
7:00 pm34 °FLight snow. Low clouds.17 mph93%30.17 "Hg10 mi
6:00 pm36 °FLow clouds.18 mph87%30.19 "Hg10 mi
5:00 pm36 °FLow clouds.23 mph87%30.19 "Hg12 mi
4:52 pm36 °FLow clouds.23 mph87%30.19 "Hg12 mi
4:00 pm37 °FMostly cloudy.25 mph81%30.20 "Hg15 mi
3:00 pm41 °FOvercast.22 mph76%30.21 "Hg12 mi
2:00 pm43 °FOvercast.17 mph71%30.22 "Hg12 mi
1:00 pm41 °FOvercast.14 mph76%30.23 "Hg8 mi
Weather by CustomWeather, © 2017

See weather overviewHow to use our weather pages